Weather History for KADM - January, 2014

Change the Weather History Date:

Monday, January 13, 2014

  Actual Average (WUND) Record (WUND)
Temperature  
Mean Temperature 45 °F -  
Max Temperature 60 °F - - (-1)
Min Temperature 30 °F - - (-1)
Degree Days  
Heating Degree Days 20    
Moisture  
Dew Point 32 °F    
Average Humidity 57    
Maximum Humidity 92    
Minimum Humidity 25    
Precipitation  
Precipitation 0.00 in - - ()
Sea Level Pressure  
Sea Level Pressure 29.93 in    
Wind  
Wind Speed 9 mph (NNW)    
Max Wind Speed 21 mph    
Max Gust Speed 32 mph    
Visibility 10 miles    
Events      
Averages and records for this station are not official NWS values.
T = Trace of Precipitation, MM = Missing Value Source: NWS Daily Summary

Daily Weather History Graph

Daily Weather History Graph

Search for Another Location

Airport or City:

Trip Planner

Search our weather history database for the weather conditions in past years. The results will help you decide how hot, cold, wet, or windy it might be!

Date:

Astronomy

Jan. 13, 2014 Rise Set
Actual Time 7:34 AM CST 5:39 PM CST
Civil Twilight 7:07 AM CST 6:06 PM CST
Nautical Twilight 6:36 AM CST 6:37 PM CST
Astronomical Twilight 6:05 AM CST 7:07 PM CST
Moon 3:54 PM CST (1/13) 5:24 AM CST (1/13)
Length of Visible Light 10h 59m
Length of Day
10h 05m
Waxing Gibbous, 95% of the Moon is Illuminated
Jan 13
Waxing Gibbous
Jan 15
Full
Jan 23
Last Quarter
Jan 30
New
Feb 6
First Quarter

Hourly Weather History & Observations

Time (CST) Temp. Windchill Dew Point Humidity Pressure Visibility Wind Dir Wind Speed Gust Speed Precip Events Conditions
12:15 AM 56.5 °F - 50.2 °F 79% 29.79 in 10.0 mi NNW 9.2 mph - N/A   Overcast
12:35 AM 55.4 °F - 49.6 °F 81% 29.78 in 10.0 mi Calm Calm - N/A   Mostly Cloudy
12:55 AM 52.2 °F - 47.5 °F 84% 29.79 in 10.0 mi NW 13.8 mph 18.4 mph N/A   Mostly Cloudy
1:15 AM 54.9 °F - 37.9 °F 53% 29.80 in 10.0 mi NNW 11.5 mph 19.6 mph N/A   Scattered Clouds
1:35 AM 53.8 °F - 36.5 °F 52% 29.82 in 10.0 mi North 11.5 mph - N/A   Clear
1:55 AM 53.4 °F - 35.6 °F 51% 29.82 in 10.0 mi North 11.5 mph 17.3 mph N/A   Clear
2:15 AM 53.6 °F - 35.1 °F 50% 29.83 in 10.0 mi North 12.7 mph 19.6 mph N/A   Clear
2:35 AM 52.7 °F - 35.2 °F 52% 29.84 in 10.0 mi North 13.8 mph - N/A   Clear
2:55 AM 52.5 °F - 34.9 °F 51% 29.84 in 10.0 mi North 13.8 mph 23.0 mph N/A   Clear
3:15 AM 51.8 °F - 35.1 °F 53% 29.85 in 10.0 mi North 12.7 mph 20.7 mph N/A   Clear
3:35 AM 51.1 °F - 35.1 °F 54% 29.85 in 10.0 mi North 10.4 mph - N/A   Clear
3:55 AM 50.0 °F - 35.1 °F 57% 29.86 in 10.0 mi NNW 9.2 mph - N/A   Clear
4:15 AM 47.8 °F - 35.1 °F 61% 29.86 in 10.0 mi NW 6.9 mph - N/A   Clear
4:35 AM 46.0 °F 42.5 °F 34.7 °F 65% 29.87 in 10.0 mi NW 6.9 mph - N/A   Clear
4:55 AM 45.7 °F 41.5 °F 34.9 °F 66% 29.88 in 10.0 mi NW 8.1 mph - N/A   Clear
5:15 AM 44.8 °F 41.6 °F 33.8 °F 65% 29.89 in 10.0 mi NNW 5.8 mph - N/A   Clear
5:35 AM 44.8 °F 43.3 °F 33.6 °F 65% 29.89 in 10.0 mi NW 3.5 mph - N/A   Clear
6:55 AM 44.6 °F 39.2 °F 32.0 °F 61% 29.92 in 10.0 mi NW 10.4 mph 16.1 mph N/A   Clear
7:55 AM 44.6 °F 39.2 °F 30.2 °F 57% 29.95 in 10.0 mi NW 10.4 mph 23.0 mph N/A   Clear
8:55 AM 48.2 °F - 28.4 °F 46% 29.99 in 10.0 mi NW 17.3 mph 23.0 mph N/A   Clear
9:55 AM 50.0 °F - 30.2 °F 47% 30.02 in 10.0 mi NNW 15.0 mph 25.3 mph N/A   Clear
10:55 AM 51.8 °F - 30.2 °F 44% 30.04 in 10.0 mi NW 16.1 mph 25.3 mph N/A   Clear
11:55 AM 57.2 °F - 32.0 °F 38% 30.03 in 10.0 mi NNW 6.9 mph 20.7 mph N/A   Clear
12:55 PM 59.0 °F - 32.0 °F 36% 30.00 in 10.0 mi NW 20.7 mph 27.6 mph N/A   Clear
1:55 PM 60.8 °F - 28.4 °F 29% 30.00 in 10.0 mi NW 15.0 mph 25.3 mph N/A   Clear
2:55 PM 60.8 °F - 26.6 °F 27% 30.00 in 10.0 mi WNW 19.6 mph 25.3 mph N/A   Clear
3:55 PM 60.8 °F - 24.8 °F 25% 30.00 in 10.0 mi WNW 18.4 mph 32.2 mph N/A   Clear
4:55 PM 59.0 °F - 23.0 °F 25% 30.00 in 10.0 mi WNW 12.7 mph 18.4 mph N/A   Clear
5:55 PM 50.0 °F - 23.0 °F 35% 30.01 in 10.0 mi West 4.6 mph - N/A   Clear
6:55 PM 44.6 °F 42.2 °F 23.0 °F 43% 30.02 in 10.0 mi North 4.6 mph - N/A   Clear
7:55 PM 39.2 °F 35.9 °F 24.8 °F 56% 30.04 in 10.0 mi North 4.6 mph - N/A   Clear
8:55 PM 35.6 °F 31.7 °F 26.6 °F 70% 30.05 in 10.0 mi North 4.6 mph - N/A   Clear
9:55 PM 35.6 °F 31.7 °F 26.6 °F 70% 30.04 in 10.0 mi North 4.6 mph - N/A   Clear
10:35 PM 32.4 °F - 28.8 °F 87% 30.04 in 10.0 mi Calm Calm - N/A   Clear
10:55 PM 32.0 °F - 27.7 °F 84% 30.04 in 10.0 mi Calm Calm - N/A   Clear
11:15 PM 31.5 °F - 27.3 °F 85% 30.03 in 10.0 mi Calm Calm - N/A   Clear
11:35 PM 30.0 °F - 28.0 °F 92% 30.03 in 10.0 mi Calm Calm - N/A   Clear
11:55 PM 30.0 °F - 27.1 °F 89% 30.02 in 10.0 mi Calm Calm - N/A   Clear